Location: Bastelaar
(51.0950°N, 3.8602°E)
Time: 16:24:31
(UTC+00:00)

Cosmos 371 Rocket - Pass Details

Date: 18 November 2025
Orbit: 674 x 690 km, 74.0° (Epoch: 12 December)

Event Time Altitude Azimuth Distance (km) Brightness Sun altitude
Rises 18:43:28 0° 211° (SSW) 3,035 7.0 -26.5°
Reaches altitude 10° 18:45:47 10° 215° (SW) 2,126 6.2 -26.8°
Maximum altitude 18:50:32 66° 297° (WNW) 755 3.5 -27.6°
Enters shadow 18:50:36 65° 302° (WNW) 756 3.5 -27.6°
